Flag for Ukraine Weather past 2 weeks in Kryvyi Rih, Ukraine

Now
41 °F

More clouds than sun.


Feels Like: 36 °F
Forecast: 33 / 42 °F
Wind: 8 mph from West

Location: Krivyy Rih / Dnipropetrovs'k

Current Time: Dec 20, 2014 at 3:48:05 PM

Latest Report: Dec 20, 2014 at 3:00 PM


Visibility: N/A

Pressure: 29.86 "Hg

Humidity: 93%

Dew point: 39 °F

Location of Kryvyi RihLocation

Historic Weather in Kryvyi Rih — Graph

°F

Kryvyi Rih temperature yesterday

Maximum temperature yesterday: 37 °F (at 11:00 PM)
Minimum temperature yesterday: 27 °F (at 1:00 AM)
Average temperature yesterday: 31 °F

Past Weeks' High & Low Weather Summary

 TemperatureHumidityPressure
High46 °F (Dec 17, 5:00 PM)100% (Dec 6, 12:02 AM)30.45 "Hg (Dec 6, 12:02 AM)
Low14 °F (Dec 5, 9:00 PM)58% (Dec 5, 2:00 PM)29.83 "Hg (Dec 17, 6:30 PM)
Average33 °F96%30.12 "Hg
* Reported Dec 5 2:00 PM — Dec 20 2:30 PM, Kryvyi Rih, Weather by CustomWeather, © 2014

Note: Actual official high and low records may vary slightly from our data, if they occured in-between our weather recording intervals... More about our weather records

Advertising

Kryvyi Rih weather history for previous 24 hours

 ConditionsComfort  
Time TempWeatherWind HumidityBarometerVisibility
2:30 PM
Dec 20
43 °FBroken clouds.8 mph87%29.83 "HgN/A
2:00 PM43 °FSunny.8 mph87%29.86 "Hg10 mi
1:30 PM43 °FSunny.13 mph81%29.86 "Hg10 mi
1:00 PM43 °FSunny.13 mph81%29.86 "Hg10 mi
12:30 PM43 °FSunny.15 mph81%29.86 "Hg10 mi
12:00 PM43 °FSunny.13 mph81%29.86 "Hg10 mi
11:30 AM43 °FSunny.13 mph87%29.86 "Hg10 mi
11:00 AM43 °FFog.13 mph87%29.86 "Hg3 mi
10:30 AM41 °FFog.8 mph87%29.89 "Hg3 mi
10:00 AM41 °FFog.10 mph87%29.89 "Hg3 mi
9:30 AM39 °FFog.10 mph93%29.89 "Hg2 mi
9:00 AM39 °FFog.10 mph93%29.89 "Hg2 mi
8:30 AM39 °FFog.10 mph93%29.89 "Hg2 mi
8:00 AM39 °FFog.13 mph93%29.89 "Hg3 mi
7:30 AM39 °FFog.13 mph93%29.89 "Hg3 mi
7:00 AM39 °FFog.10 mph93%29.89 "Hg3 mi
6:30 AM39 °FFog.10 mph93%29.89 "Hg2 mi
6:00 AM39 °FFog.13 mph93%29.89 "Hg2 mi
5:30 AM39 °FFog.10 mph93%29.89 "Hg3 mi
5:00 AM39 °FFog.13 mph93%29.89 "Hg2 mi
4:30 AM39 °FFog.13 mph93%29.92 "Hg2 mi
4:00 AM39 °FFog.10 mph93%29.92 "Hg2 mi
3:30 AM37 °FFog.10 mph93%29.92 "Hg2 mi
3:00 AM37 °FFog.13 mph93%29.95 "Hg2 mi
2:30 AM37 °FFog.13 mph93%29.95 "Hg2 mi
2:00 AM37 °FFog.13 mph93%29.95 "Hg3 mi
1:30 AM37 °FFog.13 mph93%29.95 "Hg3 mi
1:00 AM37 °FFog.15 mph93%29.95 "Hg3 mi
12:30 AM37 °FFog.13 mph93%29.95 "Hg2 mi
12:00 AM37 °FFog.15 mph93%29.98 "Hg2 mi
11:30 PM
Dec 19
37 °FFog.13 mph93%29.98 "Hg2 mi
11:00 PM37 °FFog.13 mph93%29.98 "Hg2 mi
10:30 PM36 °FFog.13 mph93%29.98 "Hg2 mi
10:00 PM36 °FFog.13 mph93%29.98 "Hg2 mi
9:30 PM36 °FFog.15 mph93%29.98 "Hg1 mi
9:00 PM36 °FFog.13 mph93%30.01 "Hg2 mi
8:30 PM36 °FFog.15 mph93%29.98 "Hg2 mi
8:00 PM36 °FFog.15 mph93%30.01 "Hg2 mi
7:30 PM36 °FFog.15 mph93%30.01 "Hg1 mi
7:02 PM36 °FFog.13 mph93%30.01 "Hg1 mi
6:30 PM34 °FLight rain. Fog.13 mph100%30.01 "Hg1 mi
6:00 PM34 °FFog.13 mph100%30.01 "Hg0 mi
5:30 PM34 °FFog.13 mph100%30.01 "Hg0 mi
5:00 PM34 °FFog.10 mph100%30.01 "Hg0 mi
4:30 PM34 °FFog.10 mph100%30.01 "Hg0 mi
4:00 PM34 °FFog.10 mph100%30.01 "Hg0 mi
3:30 PM34 °FFog.13 mph100%30.04 "Hg0 mi
3:00 PM34 °FFog.10 mph100%30.04 "Hg0 mi
Weather by CustomWeather, © 2014

See weather overviewHow to use our weather pages